Tracking 29781 objects as of 15-Oct-2024
HD Live streaming from Space Station
objects crossing your sky now

DELTA 1 DEB

Track DELTA 1 DEB now!
10-day predictions


NORAD ID: 21326
Int'l Code: 1975-052AU
Perigee: 1,087.2 km
Apogee: 1,134.0 km
Inclination: 99.9 °
Period: 107.3 minutes
Semi major axis: 7481 km
RCS: 0.0568 m2 (small)
Launch date: June 12, 1975
Source: United States (US)
Launch site: AIR FORCE WESTERN TEST RANGE (AFWTR)

Note: This is SATELLITE DEBRIS
Your satellite tracking list
Your tracking list is empty




NASA's NSSDC Master Catalog

Two Line Element Set (TLE):
1 21326U 75052AU  24288.52191181  .00000344  00000-0  69257-3 0  9998
2 21326  99.8849 180.8765 0031313  97.5470  25.9750 13.41565554634089
Source of the keplerian elements: AFSPC